Regional Weather Roundup
Issued by NWS

Home | Current Version | Previous Version | Graphics & Text | Print | Product List | Glossary On
Versions: 1 2 3 4 5 6 7 8 9 10 11 12 13 14 15 16 17 18 19 20 21 22 23 24 25 26 27 28 29 30 31 32 33 34 35 36 37 38 39 40 41 42 43 44 45 46 47 48 49 50
000
ASUS45 KTFX 222219
RWRMT
MONTANA HOURLY WEATHER ROUNDUP
NATIONAL WEATHER SERVICE GREAT FALLS MT
419 PM MDT WED OCT 22 2014

NOTE: "FAIR" INDICATES FEW OR NO CLOUDS BELOW 12000 FEET WITH NO
SIGNIFICANT WEATHER AND/OR OBSTRUCTIONS TO VISIBILITY.

* THESE STATIONS ARE NOT UNDER NWS QUALITY CONTROL. THEY DO NOT
   REPORT WEATHER SUCH AS PRECIPITATION OR FOG.

MTZ001>007-043-222300-
WEST OF THE DIVIDE
CITY           SKY/WX    TMP DP  RH WIND       PRES   REMARKS
KALISPELL      CLOUDY    55  37  51 S15       29.91S
MISSOULA       PTCLDY    59  37  44 S8        29.95F
BUTTE          SUNNY     52  28  40 W8        30.05S
MULLAN PASS    CLOUDY    43  34  71 VRB6      29.95S
* ESSEX        N/A       55  35  47 SE5G13     N/A
* LINCOLN      N/A       56  33  42 W6G15      N/A
* LOOKOUT PASS N/A       49  35  59 S8G14      N/A
* POLSON       N/A       59  36  42 S3G9       N/A
* RONAN APT    PTCLDY    59  36  42 S6         N/A
* SEELEY LAKE  N/A       57  33  40 S6G12      N/A
* THOMP F APT  PTSUNNY   46  29  52 S9G17      N/A
$$

MTZ008-052>055-222300-
SOUTHWEST MONTANA
CITY           SKY/WX    TMP DP  RH WIND       PRES   REMARKS
BOZEMAN        SUNNY     57  28  33 W18G25    30.02S
DILLON         SUNNY     55  30  39 S14G20    30.05S
W YELLOWSTONE  PTSUNNY   43  30  60 SW10G18   30.18S
* THREE FORKS  SUNNY     57  45  64 N/A        N/A
* BOULDER HILL N/A       52  27  38 S20G26     N/A
* MONIDA PASS  N/A       41  28  60 SE19G24    N/A
* RAYNOLDS PAS N/A       45  29  54 S12G17     N/A
* WHITEHALL    N/A       60  31  33 SW14G27    N/A
* WISE RIVER   N/A       51  30  45 SW15G24    N/A
$$

MTZ009>010-012-014-046-048-049-054-222300-
EAST SLOPES AND CENTRAL MONTANA
CITY           SKY/WX    TMP DP  RH WIND       PRES   REMARKS
CUT BANK       PTCLDY    59  30  33 W25G32    29.82F
GREAT FALLS    SUNNY     59  32  36 SW26G33   29.86F
HELENA         SUNNY     61  28  29 S7        29.96F
MALMSTROM AFB  SUNNY     59  32  36 SW25G37   29.89F
* CONRAD       PTCLDY    63  32  31 N/A        N/A
* DEARBORN     N/A       60  31  33 S17G27     N/A
* EAST GLACIER N/A       51  30  45 W29G35     N/A
* MONARCH      N/A       50  19  29 SW20G28    N/A
* PENDROY      N/A       61  24  24 SW12       N/A
* ROGERS PASS  N/A       50  29  44 SE16G33    N/A
* SAINT MARY   N/A       53  33  47 SW10G27    N/A
* SWEET GRASS  N/A       57  32  39 SW24G32    N/A
* WHITE SULPH  N/A       55  29  37 SW9G21     N/A
$$

MTZ011-013-016-021-035-040-045-047-050-051-222300-
NORTH CENTRAL MONTANA
CITY           SKY/WX    TMP DP  RH WIND       PRES   REMARKS
HAVRE          SUNNY     63  34  34 SW18G26   29.83S
LEWISTOWN      SUNNY     61  28  29 W13       29.91F
* CHINOOK      PTCLDY    63  34  34 SW14G21   29.84S
* FORT BENTON  SUNNY     63  30  29 SW16G23   29.86F
* CHESTER      N/A       61  29  30 SW11G17    N/A
* DENTON       N/A       61  27  27 W14G19     N/A
* GEYSER       N/A       58  25  28 SW17G25    N/A
* JUDITH GAP   N/A       55  30  39 SW27G32    N/A
* LOMA         N/A       62  33  34 SW21G29    N/A
$$

MTZ017>020-022>027-061-062-222300-
NORTHEAST MONTANA
CITY           SKY/WX    TMP DP  RH WIND       PRES   REMARKS
GLASGOW        SUNNY     63  30  29 W16       29.84S
GLENDIVE       SUNNY     63  32  31 W22       29.90R
JORDAN         SUNNY     63  28  27 W18G23    29.88S
SIDNEY         PTCLDY    63  34  34 W18G25    29.86R
WOLF POINT     SUNNY     64  34  33 W20G30    29.84S
* BEAVER HILL  N/A       61  31  32 W24G30     N/A
* CIRCLE       N/A       62  37  40 SW14       N/A
* LINDSAY DVD  N/A       59  30  33 W19G26     N/A
* NAVAJO       N/A       59  35  41 W22G28     N/A
$$

MTZ028>042-056>058-222300-
SOUTHCENTRAL AND SOUTHEAST MONTANA
CITY           SKY/WX    TMP DP  RH WIND       PRES   REMARKS
BAKER          SUNNY     61  30  31 W16       29.93R
BILLINGS       SUNNY     64  19  18 W12       29.94S
LIVINGSTON     SUNNY     59  27  29 SW25G43   29.98S
MILES CITY     SUNNY     64  27  25 W18G24    29.91S
* LAUREL APT   SUNNY     66  19  16 S9         N/A
* ROUNDUP APT  SUNNY     63  23  22 W17G26     N/A
* ALZADA       N/A       62  26  25 SW12       N/A
* HYSHAM       N/A       61  26  26 W6G23      N/A
* LAME DEER    N/A       57  23  27 W12        N/A
* REED POINT   N/A       63  27  26 W19G25     N/A
* ROSCOE HILL  N/A       59  15  18 S8G21      N/A
$$

REGIONAL REPORTS...DAKOTAS
CITY           SKY/WX    TMP DP  RH WIND       PRES   REMARKS
WILLISTON      SUNNY     63  39  41 W17G25    29.81R
DICKINSON      SUNNY     63  34  34 W18G29    29.86R
BEACH          N/A       61  32  34 NW21G30   29.90R
CROSBY         CLOUDY    55  45  69 W12       29.79R
TIOGA          CLOUDY    55  43  64 W16G23    29.84R
BISMARCK       SUNNY     70  37  30 W17       29.84S
GRAND FORKS    LGT RAIN  57  52  83 SW9       29.81R
FARGO          CLOUDY    61  52  72 SW15      29.85R
BUFFALO SD     SUNNY     63  27  26 W24G32    29.89S
RAPID CITY     SUNNY     64  36  35 SE7       29.99S
$$

REGIONAL REPORTS...WYOMING/IDAHO/WASHINGTON
CITY           SKY/WX    TMP DP  RH WIND       PRES   REMARKS
GILLETTE       SUNNY     61  25  25 SW7       29.99F
SHERIDAN       SUNNY     63  25  24 CALM      29.98R
CODY           SUNNY     59  21  23 W16G28    30.02S
YELLOWSTONE LA PTCLDY    39  25  57 VRB6      30.22R WCI  35
SALMON         SUNNY    N/A N/A N/A N/A        N/A
MULLAN PASS    CLOUDY    43  34  71 VRB6      29.95S
SAND POINT     CLOUDY    52  46  80 N3        29.88S
SPOKANE        LGT RAIN  57  43  60 S9        29.85S
$$

REGIONAL REPORTS...ALBERTA
CITY           SKY/WX    TMP DP  RH WIND       PRES   REMARKS
CALGARY        PTSUNNY   59  32  36 VRB2      29.65S
LETHBRIDGE     PTCLDY    63  32  31 SW18G24   29.74S
MEDICINE HAT   PTSUNNY   63  34  34 S16G22    29.75R
EDMONTON       PTSUNNY   59  30  33 S13G22    29.57F
WATERTON GATE  N/A       54  34  47 SW18G29    N/A
CARDSTON       N/A       57  36  46 SW9        N/A
MILK RIVER     N/A       63  32  31 W21G26     N/A
$$

REGIONAL REPORTS...SASKATCHEWAN
CITY           SKY/WX    TMP DP  RH WIND       PRES   REMARKS
SWIFT CURRENT  SUNNY     59  36  42 W14G20    29.76S
MOOSE JAW      PTSUNNY   59  41  51 NW14G21   29.76R
REGINA         PTSUNNY   54  48  80 NW10      29.75S
VAL MARIE      N/A       59  32  36 W17        N/A
ASSINIBOIA     N/A       61  37  41 W20G25     N/A

$$




USA.gov is the U.S. government's official web portal to all federal, state and local government web resources and services.